Hourly Weather Madrid

Today, 21 October, Wednesday

Time Temperature Precipitation Wind Pressure Humidity
00:00 +16°C° 2.1 mm 9 mps 699 mmHg 80%
01:00 +15°C° 0.2 mm 7 mps 699 mmHg 81%
02:00 +15°C° 0.2 mm 6 mps 699 mmHg 81%
03:00 +14°C° 0.2 mm 5 mps 699 mmHg 82%
04:00 +14°C° 0.3 mm 5 mps 700 mmHg 83%
05:00 +14°C° 0.3 mm 5 mps 700 mmHg 84%
06:00 +14°C° 0.3 mm 5 mps 700 mmHg 85%
07:00 +14°C° 0.2 mm 6 mps 701 mmHg 81%
08:00 +15°C° 0.2 mm 7 mps 701 mmHg 77%
09:00 +15°C° 0.2 mm 8 mps 702 mmHg 74%
10:00 +16°C° 0.2 mm 8 mps 702 mmHg 69%
11:00 +17°C° 0.2 mm 8 mps 702 mmHg 64%
12:00 +18°C° 0.2 mm 8 mps 702 mmHg 59%
13:00 +18°C° 0.3 mm 8 mps 702 mmHg 58%
14:00 +18°C° 0.3 mm 8 mps 702 mmHg 58%
15:00 +18°C° 0.3 mm 7 mps 702 mmHg 58%
16:00 +17°C° 0.1 mm 6 mps 702 mmHg 60%
17:00 +17°C° 0.1 mm 5 mps 703 mmHg 62%
18:00 +17°C° 0.1 mm 4 mps 703 mmHg 65%
19:00 +17°C° 0.2 mm 4 mps 703 mmHg 68%
20:00 +16°C° 0.2 mm 3 mps 704 mmHg 71%
21:00 +16°C° 0.2 mm 3 mps 704 mmHg 74%
22:00 +16°C° 0.2 mm 3 mps 704 mmHg 75%
23:00 +16°C° 0.2 mm 3 mps 704 mmHg 75%

Tomorrow, 22 October, Thursday

Time Temperature Precipitation Wind Pressure Humidity
00:00 +16°C° 0.2 mm 3 mps 704 mmHg 76%
01:00 +16°C° 0.3 mm 3 mps 704 mmHg 77%
02:00 +14°C° 0.3 mm 3 mps 704 mmHg 77%
03:00 +14°C° 0.3 mm 3 mps 704 mmHg 78%
04:00 +14°C° 0.2 mm 3 mps 704 mmHg 79%
05:00 +14°C° 0.2 mm 3 mps 704 mmHg 80%
06:00 +14°C° 0.2 mm 2 mps 704 mmHg 81%
07:00 +15°C° 0.1 mm 2 mps 704 mmHg 80%
08:00 +14°C° 0.1 mm 3 mps 705 mmHg 79%
09:00 +14°C° 0.1 mm 3 mps 705 mmHg 78%
10:00 +16°C° 0.2 mm 3 mps 705 mmHg 76%
11:00 +16°C° 0.2 mm 3 mps 705 mmHg 74%
12:00 +17°C° 0.2 mm 3 mps 705 mmHg 71%
13:00 +15°C° 0.7 mm 4 mps 704 mmHg 74%
14:00 +15°C° 0.7 mm 4 mps 704 mmHg 76%
15:00 +15°C° 0.7 mm 4 mps 704 mmHg 78%
16:00 +14°C° 0.2 mm 3 mps 705 mmHg 78%
17:00 +15°C° 0.2 mm 2 mps 705 mmHg 77%
18:00 +15°C° 0.2 mm 1 mps 705 mmHg 76%
19:00 +15°C° 0.3 mm 2 mps 705 mmHg 79%
20:00 +14°C° 0.3 mm 2 mps 706 mmHg 81%
21:00 +14°C° 0.3 mm 2 mps 706 mmHg 84%
22:00 +14°C° 0.1 mm 2 mps 707 mmHg 86%
23:00 +12°C° 0.1 mm 3 mps 707 mmHg 88%

Day after tomorrow, 23 October, Friday

Time Temperature Precipitation Wind Pressure Humidity
00:00 +12°C° 0.1 mm 3 mps 707 mmHg 90%
01:00 +12°C° 0 mm 3 mps 707 mmHg 90%
02:00 +11°C° 0 mm 3 mps 707 mmHg 90%
03:00 +12°C° 0 mm 2 mps 707 mmHg 90%
04:00 +12°C° 0 mm 2 mps 708 mmHg 90%
05:00 +12°C° 0 mm 2 mps 708 mmHg 90%
06:00 +10°C° 0 mm 2 mps 708 mmHg 90%
07:00 +11°C° 0 mm 3 mps 709 mmHg 85%
08:00 +12°C° 0 mm 3 mps 709 mmHg 80%
09:00 +13°C° 0 mm 4 mps 710 mmHg 75%
10:00 +14°C° 0 mm 4 mps 710 mmHg 68%
11:00 +15°C° 0 mm 4 mps 710 mmHg 62%
12:00 +16°C° 0 mm 5 mps 710 mmHg 55%
13:00 +16°C° 0 mm 5 mps 710 mmHg 53%
14:00 +17°C° 0 mm 4 mps 710 mmHg 51%
15:00 +18°C° 0 mm 4 mps 710 mmHg 49%
16:00 +17°C° 0 mm 4 mps 710 mmHg 53%
17:00 +15°C° 0 mm 4 mps 710 mmHg 57%
18:00 +14°C° 0 mm 3 mps 711 mmHg 62%
19:00 +13°C° 0 mm 3 mps 711 mmHg 64%
20:00 +14°C° 0 mm 2 mps 711 mmHg 66%
21:00 +13°C° 0 mm 2 mps 712 mmHg 68%
22:00 +13°C° 0 mm 2 mps 712 mmHg 70%
23:00 +13°C° 0 mm 2 mps 712 mmHg 71%

24 October, Saturday

Time Temperature Precipitation Wind Pressure Humidity
00:00 +12°C° 0 mm 1 mps 712 mmHg 73%
01:00 +12°C° 0 mm 1 mps 712 mmHg 74%
02:00 +12°C° 0 mm 1 mps 712 mmHg 76%
03:00 +11°C° 0 mm 1 mps 712 mmHg 77%
04:00 +11°C° 0 mm 1 mps 712 mmHg 79%
05:00 +11°C° 0 mm 1 mps 712 mmHg 80%
06:00 +10°C° 0 mm 1 mps 712 mmHg 82%
07:00 +11°C° 0 mm 1 mps 712 mmHg 78%
08:00 +12°C° 0 mm 1 mps 712 mmHg 73%
09:00 +13°C° 0 mm 1 mps 712 mmHg 69%
10:00 +14°C° 0 mm 1 mps 712 mmHg 65%
11:00 +16°C° 0 mm 2 mps 711 mmHg 60%
12:00 +17°C° 0 mm 3 mps 711 mmHg 55%
13:00 +17°C° 0 mm 3 mps 711 mmHg 53%
14:00 +18°C° 0 mm 3 mps 710 mmHg 50%
15:00 +18°C° 0 mm 3 mps 710 mmHg 48%
16:00 +17°C° 0 mm 3 mps 710 mmHg 52%
17:00 +16°C° 0 mm 3 mps 709 mmHg 56%
18:00 +15°C° 0 mm 2 mps 709 mmHg 60%
19:00 +15°C° 0 mm 2 mps 709 mmHg 62%
20:00 +14°C° 0 mm 2 mps 709 mmHg 65%
21:00 +14°C° 0 mm 2 mps 709 mmHg 68%
22:00 +13°C° 0 mm 2 mps 709 mmHg 70%
23:00 +12°C° 0 mm 3 mps 709 mmHg 72%

25 October, Sunday

Time Temperature Precipitation Wind Pressure Humidity
00:00 +11°C° 0 mm 3 mps 709 mmHg 74%
01:00 +11°C° 0 mm 3 mps 708 mmHg 75%
02:00 +10°C° 0 mm 3 mps 708 mmHg 76%
03:00 +10°C° 0 mm 3 mps 708 mmHg 78%
04:00 +10°C° 0 mm 3 mps 708 mmHg 79%
05:00 +9°C° 0 mm 3 mps 708 mmHg 80%
06:00 +8°C° 0 mm 4 mps 708 mmHg 81%
07:00 +8°C° 0 mm 4 mps 708 mmHg 78%
08:00 +9°C° 0 mm 5 mps 708 mmHg 76%
09:00 +10°C° 0 mm 5 mps 708 mmHg 73%
10:00 +11°C° 0 mm 6 mps 708 mmHg 70%
11:00 +13°C° 0 mm 6 mps 708 mmHg 67%
12:00 +14°C° 0 mm 6 mps 707 mmHg 64%
13:00 +14°C° 0 mm 7 mps 707 mmHg 66%
14:00 +14°C° 0 mm 7 mps 707 mmHg 69%
15:00 +13°C° 0 mm 8 mps 707 mmHg 71%
16:00 +12°C° 0.1 mm 7 mps 707 mmHg 72%
17:00 +13°C° 0.1 mm 6 mps 707 mmHg 74%
18:00 +12°C° 0.1 mm 5 mps 707 mmHg 75%
19:00 +12°C° 0 mm 5 mps 708 mmHg 69%
20:00 +10°C° 0 mm 5 mps 708 mmHg 63%
21:00 +10°C° 0 mm 5 mps 709 mmHg 57%
22:00 +9°C° 0 mm 5 mps 709 mmHg 59%
23:00 +9°C° 0 mm 5 mps 709 mmHg 60%

26 October, Monday

Time Temperature Precipitation Wind Pressure Humidity
00:00 +8°C° 0 mm 5 mps 709 mmHg 62%
01:00 +8°C° 0 mm 5 mps 709 mmHg 64%
02:00 +8°C° 0 mm 4 mps 709 mmHg 66%
03:00 +7°C° 0 mm 4 mps 709 mmHg 68%
04:00 +7°C° 0 mm 4 mps 709 mmHg 69%
05:00 +7°C° 0 mm 4 mps 710 mmHg 70%
06:00 +8°C° 0 mm 3 mps 710 mmHg 72%
07:00 +8°C° 0 mm 3 mps 710 mmHg 67%
08:00 +8°C° 0 mm 4 mps 711 mmHg 62%
09:00 +10°C° 0 mm 4 mps 711 mmHg 57%
10:00 +11°C° 0 mm 4 mps 711 mmHg 53%
11:00 +12°C° 0 mm 3 mps 711 mmHg 48%
12:00 +13°C° 0 mm 3 mps 711 mmHg 43%
13:00 +13°C° 0 mm 3 mps 711 mmHg 42%
14:00 +13°C° 0 mm 4 mps 710 mmHg 41%
15:00 +14°C° 0 mm 4 mps 710 mmHg 40%
16:00 +13°C° 0 mm 3 mps 710 mmHg 44%
17:00 +12°C° 0 mm 3 mps 710 mmHg 48%
18:00 +12°C° 0 mm 3 mps 711 mmHg 52%
19:00 +11°C° 0 mm 3 mps 711 mmHg 54%
20:00 +11°C° 0 mm 3 mps 711 mmHg 57%
21:00 +10°C° 0 mm 3 mps 711 mmHg 59%
22:00 +10°C° 0 mm 3 mps 711 mmHg 60%
23:00 +10°C° 0 mm 2 mps 711 mmHg 61%

27 October, Tuesday

Time Temperature Precipitation Wind Pressure Humidity
00:00 +9°C° 0 mm 2 mps 711 mmHg 63%
01:00 +9°C° 0 mm 2 mps 711 mmHg 64%
02:00 +10°C° 0 mm 1 mps 710 mmHg 66%
03:00 +9°C° 0 mm 1 mps 710 mmHg 67%
04:00 +9°C° 0 mm 1 mps 710 mmHg 68%
05:00 +9°C° 0 mm 1 mps 710 mmHg 69%
06:00 +9°C° 0 mm 1 mps 710 mmHg 71%
07:00 +9°C° 0 mm 1 mps 710 mmHg 67%
08:00 +9°C° 0 mm 0 mps 710 mmHg 64%
09:00 +10°C° 0 mm 0 mps 710 mmHg 60%
10:00 +12°C° 0 mm 1 mps 710 mmHg 57%
11:00 +13°C° 0 mm 1 mps 709 mmHg 53%
12:00 +14°C° 0 mm 1 mps 709 mmHg 50%
13:00 +15°C° 0 mm 2 mps 709 mmHg 48%
14:00 +16°C° 0 mm 2 mps 708 mmHg 47%
15:00 +17°C° 0 mm 2 mps 708 mmHg 45%
16:00 +16°C° 0 mm 2 mps 708 mmHg 49%
17:00 +15°C° 0 mm 2 mps 708 mmHg 53%
18:00 +14°C° 0 mm 2 mps 708 mmHg 57%
19:00 +14°C° 0 mm 1 mps 708 mmHg 59%
20:00 +13°C° 0 mm 1 mps 708 mmHg 61%
21:00 +12°C° 0 mm 0 mps 708 mmHg 63%
22:00 +11°C° 0 mm 0 mps 708 mmHg 64%
23:00 +11°C° 0 mm 0 mps 708 mmHg 66%
Show more

We Need Your Consent

Meteoprog and our Service Providers may store and access personal data such as cookies, device identifiers or other similar technologies on your device and process such data to personalise content and ads, as well as provide social media features and to analyse the traffic.

  • Store and/or access information on your device

    Cookies, device identifiers or other information can be stored or accessed on your device for the purposes indicated above.

  • Personalised ads and content, ad and content measurement, audience insights, and products development

    Ads and content can be personalised based on a profile. More data can be added to better personalise ads and content. Ad and content performance can be measured. Insights about the audience who saw the ads and content can be derived. Such data can be used to develop or improve user’s experience, systems and software.

By clicking ‘I Agree’ you will allow the use of indicated cookies, device identifiers, web beacons or other similar technologies. Your settings can be changed in the browser on your device.

For certain purposes, legitimate interests may be relied on, rather than consent. You can read more about this in our Privacy and Cookie Policy.